This demonstration page uses our WeatherBlox Daily Observations layout. Learn more.

Left ArrowRight Arrow

44.8408, -93.29828

Hourly Observations for July 26, 2019

Temp ( °F °C ) Dew Point ( °F °C ) Humidity (%) Winds ( mph kmh ) Pressure ( in mb ) Visibility ( mi km ) Precip ( " mm )
12:53 am 00:53 Cloudy 70 21.1 62 16.7 76 76 S 13 20 30.01 1016 10 16 0.00 0.00
1:53 am 01:53 Cloudy 70 21.1 61 16.1 73 73 S 10 17 30.00 1016 10 16 0.00 0.00
2:53 am 02:53 Cloudy 71 21.7 61 16.1 71 71 S 8 13 29.98 1015 10 16 0.00 0.00
3:53 am 03:53 Cloudy 71 21.7 60 15.6 68 68 S 9 15 29.95 1014 10 16 0.00 0.00
4:53 am 04:53 Cloudy 72 22.2 61 16.1 68 68 S 9 15 29.96 1015 10 16 0.00 0.00
5:53 am 05:53 Cloudy with Light Rain 71 21.7 61 16.1 71 71 S 8 13 29.96 1015 10 16 0.00 0.00
6:53 am 06:53 Cloudy with Nearby Thunderstorms 71 21.7 62 16.7 73 73 SSW 7 11 29.98 1015 4 6 0.01 0.25
7:14 am 07:14 Cloudy with Light Rain 71 21.7 63 17.2 76 76 SSW 5 7 29.97 1015 5 8 0.01 0.25
7:25 am 07:25 Cloudy with Thunderstorms 71 21.7 63 17.2 76 76 SSW 7 11 29.98 1015 5 8 0.03 0.76
7:43 am 07:43 Cloudy with Nearby Thunderstorms 70 21.1 64 17.8 82 82 S 9 15 29.97 1015 4 6 0.05 1.27
7:53 am 07:53 Cloudy with Nearby Thunderstorms 68 20 65 18.3 90 90 SSE 18 30 29.93 1014 3 5 0.09 2.29
8:43 am 08:43 Mostly Cloudy 71 21.7 64 17.8 79 79 Calm 29.92 1013 10 16 0.02 0.51
8:53 am 08:53 Mostly Cloudy 72 22.2 64 17.8 76 76 S 9 15 29.94 1014 10 16 0.02 0.51
9:53 am 09:53 Mostly Sunny 74 23.3 63 17.2 69 69 S 9 15 29.96 1014 10 16 0.00 0.00
10:53 am 10:53 Mostly Sunny 76 24.4 63 17.2 64 64 S 12 19 29.95 1014 10 16 0.00 0.00
11:53 am 11:53 Mostly Cloudy 78 25.6 65 18.3 64 64 SW 9 15 29.96 1015 10 16 0.00 0.00
12:32 pm 12:32 Partly Cloudy 80 26.7 65 18.3 60 60 WSW 8 13 29.92 1013 10 16 0.00 0.00
12:53 pm 12:53 Mostly Sunny 80 26.7 65 18.3 60 60 SW 8 13 29.94 1014 10 16 0.00 0.00
1:53 pm 13:53 Partly Cloudy 82 27.8 66 18.9 58 58 SW 12 19 29.93 1014 10 16 0.00 0.00
2:53 pm 14:53 Mostly Sunny 83 28.3 67 19.4 59 59 SW 10 17 29.93 1013 10 16 0.00 0.00
3:53 pm 15:53 Partly Cloudy 85 29.4 68 20 57 57 SSW 12 19 29.91 1013 10 16 0.00 0.00
4:53 pm 16:53 Partly Cloudy 85 29.4 69 20.6 59 59 SW 13 20 29.90 1013 10 16 0.00 0.00
5:53 pm 17:53 Mostly Cloudy 86 30 69 20.6 57 57 SW 14 22 29.87 1012 10 16 0.00 0.00
6:53 pm 18:53 Mostly Cloudy 84 28.9 70 21.1 63 63 SSW 10 17 29.87 1012 10 16 0.00 0.00
7:53 pm 19:53 Mostly Cloudy 85 29.4 70 21.1 61 61 SSW 10 17 29.89 1012 10 16 0.00 0.00
8:34 pm 20:34 Mostly Cloudy with Nearby Thunderstorms 84 28.9 71 21.7 65 65 SSW 10 17 29.84 1011 10 16 0.00 0.00
8:50 pm 20:50 Mostly Cloudy 84 29 72 22 66 66 SW 14 22 29.85 1011 10 16 0.00 0.00
8:53 pm 20:53 Mostly Cloudy 83 28.3 71 21.7 67 67 SW 12 19 29.88 1012 10 16 0.00 0.00
9:53 pm 21:53 Mostly Cloudy 77 25 65 18.3 66 66 NE 7 11 29.91 1013 10 16 0.00 0.00
10:53 pm 22:53 Mostly Cloudy 77 25 66 18.9 69 69 VRB 5 7 29.91 1013 10 16 0.00 0.00
11:53 pm 23:53 Partly Cloudy 75 23.9 66 18.9 74 74 SE 3 6 29.92 1013 10 16 0.00 0.00

Powered by AerisWeather